Location: Alladorf
(49.9620°N, 11.3790°E)
Time: 20:15:36
(UTC+00:00)

Cosmos 2263 Rocket - Pass Details

Date: 29 November 2020
Orbit: 823 x 848 km, 71.0° (Epoch: 25 January)

Event Time Altitude Azimuth Distance (km) Brightness Sun altitude
Exits shadow 03:00:56 38° 77° (ENE) 1,265 3.4 -35.8°
Drops below altitude 10° 03:05:04 10° 39° (NE) 2,482 5.1 -35.1°
Sets 03:07:38 0° 33° (NNE) 3,423 5.9 -34.7°
